Merced, CA

1:18 AM PDT on April 27, 2018 (GMT -0700)
Merced Municipal-Macready

Weather History for KMCE - December, 2012

Change the Weather History Date:

Tuesday, December 25, 2012

  Actual Average Record
Temperature  
Mean Temperature 46 °F 44 °F  
Max Temperature 51 °F 52 °F 65 °F (2013)
Min Temperature 40 °F 36 °F 23 °F (1998)
Degree Days  
Heating Degree Days 19    
Month to date heating degree days 389  
Since 1 July heating degree days 712  
Cooling Degree Days 0    
Month to date cooling degree days 0  
Year to date cooling degree days 1966  
Moisture  
Dew Point 43 °F    
Average Humidity 93    
Maximum Humidity 100    
Minimum Humidity 86    
Precipitation  
Precipitation 0.31 in 0.06 in 0.67 in (2003)
Month to date precipitation 2.92 1.10  
Year to date precipitation 10.30 12.08  
Since 1 July precipitation 4.79  
Snow  
Snow 0.00 in - - ()
Month to date snowfall 0.0  
Since 1 July snowfall 0.0  
Snow Depth 0.00 in    
Sea Level Pressure  
Sea Level Pressure 30.08 in    
Wind  
Wind Speed 8 mph (SE)    
Max Wind Speed 21 mph    
Max Gust Speed 25 mph    
Visibility 3 miles    
Events Fog , Rain    
T = Trace of Precipitation, MM = Missing Value Source: NWS Daily Summary

Daily Weather History Graph

Daily Weather History Graph

Search for Another Location

Airport or City:

Astronomy

Dec. 25, 2012 Rise Set
Actual Time 7:14 AM PST 4:50 PM PST
Civil Twilight 6:45 AM PST 5:19 PM PST
Nautical Twilight 6:12 AM PST 5:52 PM PST
Astronomical Twilight 5:40 AM PST 6:24 PM PST
Moon 3:01 PM PST (12/25) 4:52 AM PST (12/25)
Length of Visible Light 10h 34m
Length of Day
9h 36m
Waxing Gibbous, 94% of the Moon is Illuminated
Dec 25
Waxing Gibbous
Dec 28
Full
Jan 4
Last Quarter
Jan 11
New
Jan 18
First Quarter

Hourly Weather History & Observations

Time (PST) Temp. Windchill Dew Point Humidity Pressure Visibility Wind Dir Wind Speed Gust Speed Precip Events Conditions
12:28 AM 41.0 °F - 39.2 °F 93% 30.17 in 3.0 mi Calm Calm - N/A   Overcast
12:48 AM 41.0 °F - 39.2 °F 93% 30.17 in 2.5 mi Calm Calm - N/A   Overcast
12:53 AM 39.9 °F - 39.0 °F 97% 30.17 in 1.5 mi Calm Calm - N/A   Overcast
1:04 AM 41.0 °F - 39.2 °F 93% 30.18 in 0.8 mi Calm Calm - N/A   Overcast
1:12 AM 41.0 °F - 39.2 °F 93% 30.18 in 1.0 mi Calm Calm - N/A   Overcast
1:40 AM 42.8 °F - 39.2 °F 87% 30.18 in 3.0 mi Calm Calm - N/A   Overcast
1:53 AM 42.1 °F - 39.9 °F 92% 30.18 in 4.0 mi Calm Calm - N/A   Overcast
2:17 AM 42.8 °F 41.1 °F 41.0 °F 93% 30.17 in 1.8 mi East 3.5 mph - N/A   Overcast
2:31 AM 44.6 °F 43.1 °F 42.8 °F 93% 30.16 in 0.8 mi SE 3.5 mph - N/A   Mist
2:48 AM 44.6 °F 42.2 °F 42.8 °F 93% 30.15 in 0.2 mi SE 4.6 mph - N/A Fog Fog
2:53 AM 44.1 °F 42.5 °F 43.0 °F 96% 30.16 in 0.2 mi SE 3.5 mph - N/A Fog Fog
3:20 AM 44.6 °F 41.4 °F 42.8 °F 93% 30.15 in 0.5 mi SSE 5.8 mph - N/A Fog Fog
3:42 AM 44.6 °F 42.2 °F 42.8 °F 93% 30.14 in 0.2 mi SE 4.6 mph - N/A Fog Fog
3:53 AM 44.1 °F 40.1 °F 43.0 °F 96% 30.14 in 0.2 mi SE 6.9 mph - N/A Fog Fog
4:53 AM 44.1 °F 40.1 °F 42.1 °F 93% 30.12 in 0.2 mi SE 6.9 mph - N/A Fog Fog
5:53 AM 44.1 °F 40.1 °F 43.0 °F 96% 30.09 in 0.2 mi SE 6.9 mph - N/A Fog Fog
6:07 AM 44.6 °F 40.2 °F 42.8 °F 93% 30.09 in 1.0 mi SE 8.1 mph - N/A   Mist
6:20 AM 44.6 °F 41.4 °F 42.8 °F 93% 30.10 in 0.8 mi SSE 5.8 mph - N/A   Mist
6:27 AM 44.6 °F 42.2 °F 42.8 °F 93% 30.10 in 1.0 mi SSE 4.6 mph - N/A   Overcast
6:41 AM 44.6 °F 40.7 °F 42.8 °F 93% 30.11 in 0.8 mi South 6.9 mph - N/A   Mist
6:53 AM 44.1 °F 40.1 °F 43.0 °F 96% 30.11 in 0.5 mi South 6.9 mph - N/A Fog Fog
7:13 AM 44.6 °F 41.4 °F 42.8 °F 93% 30.12 in 1.2 mi SE 5.8 mph - N/A   Overcast
7:44 AM 44.6 °F 41.4 °F 42.8 °F 93% 30.11 in 0.8 mi SE 5.8 mph - N/A   Overcast
7:53 AM 44.1 °F 41.5 °F 43.0 °F 96% 30.12 in 1.0 mi SSE 4.6 mph - N/A   Overcast
8:53 AM 44.1 °F 41.5 °F 43.0 °F 96% 30.13 in 1.8 mi SSE 4.6 mph - N/A   Overcast
9:07 AM 44.6 °F 41.4 °F 42.8 °F 93% 30.13 in 2.0 mi SSE 5.8 mph - N/A   Overcast
9:34 AM 44.6 °F 42.2 °F 42.8 °F 93% 30.14 in 1.8 mi SE 4.6 mph - N/A   Overcast
9:45 AM 44.6 °F 40.7 °F 42.8 °F 93% 30.14 in 2.5 mi ESE 6.9 mph - N/A   Overcast
9:53 AM 45.0 °F 41.8 °F 43.0 °F 93% 30.14 in 3.0 mi ESE 5.8 mph - N/A   Overcast
10:14 AM 44.6 °F - 44.6 °F 100% 30.15 in 4.0 mi Calm Calm - N/A   Overcast
10:53 AM 46.0 °F - 43.0 °F 89% 30.14 in 5.0 mi Calm Calm - N/A   Overcast
11:23 AM 46.4 °F - 42.8 °F 87% 30.13 in 6.0 mi Calm Calm - N/A   Partly Cloudy
11:53 AM 46.9 °F - 43.0 °F 86% 30.11 in 6.0 mi Calm Calm - N/A   Scattered Clouds
12:53 PM 48.0 °F - 44.1 °F 86% 30.08 in 7.0 mi SE 4.6 mph - N/A   Overcast
1:53 PM 48.9 °F - 44.1 °F 83% 30.03 in 5.0 mi East 10.4 mph - 0.01 in Rain Rain
2:53 PM 50.0 °F - 46.0 °F 86% 29.97 in 7.0 mi ESE 15.0 mph - 0.06 in Rain Light Rain
3:53 PM 50.0 °F - 46.0 °F 86% 29.94 in 10.0 mi SE 15.0 mph - 0.00 in   Overcast
4:53 PM 48.9 °F - 46.0 °F 90% 29.94 in 5.0 mi South 11.5 mph - 0.01 in Rain Light Rain
5:53 PM 48.0 °F - 45.0 °F 89% 29.89 in 4.0 mi South 11.5 mph - 0.03 in   Mostly Cloudy
6:03 PM 46.4 °F 41.5 °F 44.6 °F 93% 29.88 in 4.0 mi South 10.4 mph - N/A   Mostly Cloudy
6:53 PM 48.0 °F - 45.0 °F 89% 29.93 in 4.0 mi SW 6.9 mph - 0.03 in Rain Light Rain
7:53 PM 48.0 °F - 44.1 °F 86% 29.89 in 4.0 mi SSE 10.4 mph - 0.09 in Rain Rain
8:53 PM 48.0 °F - 44.1 °F 86% 29.87 in 7.0 mi SE 12.7 mph - 0.01 in Rain Light Rain
9:53 PM 48.0 °F - 44.1 °F 86% 29.89 in 6.0 mi ESE 12.7 mph - 0.01 in   Overcast
10:53 PM 48.0 °F - 44.1 °F 86% 29.90 in 6.0 mi SE 15.0 mph - 0.00 in Rain Light Rain
11:53 PM 46.9 °F - 43.0 °F 86% 29.90 in 8.0 mi ESE 13.8 mph - 0.06 in Rain Light Rain